Time,TemperatureF,DewpointF,PressureIn,WindDirection,WindDirectionDegrees,WindSpeedMPH,WindSpeedGustMPH,Humidity,HourlyPrecipIn,Conditions,Clouds,dailyrainin,SoftwareType,DateUTC
2013-09-22 00:02:00,-999.0,-99.9,29.69,SE,125,0.0,8.0,-999,-99.99,,,-99.99,,2013-09-22 04:02:00,
2013-09-22 00:23:00,60.0,58.0,29.70,ESE,107,0.0,2.0,92,0.18,,,0.53,,2013-09-22 04:23:00,
2013-09-22 00:54:00,60.0,58.0,29.68,ENE,72,0.0,0.0,92,0.05,,,0.56,,2013-09-22 04:54:00,
2013-09-22 01:23:00,59.0,57.0,29.68,ENE,72,0.0,0.0,93,0.05,,,0.57,,2013-09-22 05:23:00,
2013-09-22 01:53:00,59.0,57.0,29.69,WNW,286,0.0,2.0,93,0.06,,,0.61,,2013-09-22 05:53:00,
2013-09-22 02:22:00,59.0,57.0,29.68,SE,129,0.0,1.0,93,0.06,,,0.64,,2013-09-22 06:22:00,
2013-09-22 02:52:00,59.0,57.0,29.67,SE,129,0.0,1.0,93,0.02,,,0.64,,2013-09-22 06:52:00,
2013-09-22 03:22:00,59.0,57.0,29.68,WSW,246,0.0,1.0,93,0.00,,,0.64,,2013-09-22 07:22:00,
2013-09-22 03:52:00,59.0,57.0,29.67,WSW,246,0.0,0.0,93,0.00,,,0.64,,2013-09-22 07:52:00,
2013-09-22 04:22:00,59.0,57.0,29.67,SSE,148,0.0,2.0,93,0.00,,,0.64,,2013-09-22 08:22:00,
2013-09-22 04:52:00,58.0,56.0,29.68,SSE,148,0.0,2.0,93,0.00,,,0.64,,2013-09-22 08:52:00,
2013-09-22 05:22:00,58.0,56.0,29.70,SSE,148,0.0,0.0,93,0.00,,,0.64,,2013-09-22 09:22:00,
2013-09-22 05:53:00,58.0,56.0,29.70,South,171,0.0,1.0,93,0.00,,,0.64,,2013-09-22 09:53:00,
2013-09-22 06:23:00,57.0,55.0,29.70,SE,134,1.0,4.0,93,0.00,,,0.64,,2013-09-22 10:23:00,
2013-09-22 06:53:00,56.0,54.0,29.71,SE,139,0.0,5.0,93,0.00,,,0.64,,2013-09-22 10:53:00,
2013-09-22 07:22:00,55.0,53.0,29.73,SSE,156,1.0,4.0,93,0.00,,,0.64,,2013-09-22 11:22:00,
2013-09-22 07:52:00,54.0,52.0,29.75,SE,134,0.0,2.0,93,0.00,,,0.64,,2013-09-22 11:52:00,
2013-09-22 08:22:00,53.0,50.0,29.76,SE,140,0.0,3.0,91,0.00,,,0.64,,2013-09-22 12:22:00,
2013-09-22 08:52:00,53.0,50.0,29.77,SE,145,0.0,2.0,91,0.00,,,0.64,,2013-09-22 12:52:00,
2013-09-22 09:22:00,54.0,50.0,29.77,NNE,26,1.0,7.0,87,0.00,,,0.64,,2013-09-22 13:22:00,
2013-09-22 09:52:00,55.0,51.0,29.78,SE,132,1.0,7.0,86,0.00,,,0.64,,2013-09-22 13:52:00,
2013-09-22 10:22:00,57.0,51.0,29.78,SSE,155,0.0,6.0,81,0.00,,,0.64,,2013-09-22 14:22:00,
2013-09-22 10:52:00,59.0,51.0,29.79,East,98,2.0,11.0,75,0.00,,,0.64,,2013-09-22 14:52:00,
2013-09-22 11:23:00,60.0,50.0,29.78,SE,126,2.0,8.0,70,0.00,,,0.64,,2013-09-22 15:23:00,
2013-09-22 11:54:00,62.0,50.0,29.79,South,184,1.0,8.0,64,0.00,,,0.64,,2013-09-22 15:54:00,
2013-09-22 12:24:00,63.0,49.0,29.79,ENE,69,1.0,9.0,61,0.00,,,0.64,,2013-09-22 16:24:00,
2013-09-22 12:54:00,62.0,47.0,29.79,ESE,116,1.0,7.0,59,0.00,,,0.64,,2013-09-22 16:54:00,
2013-09-22 13:23:00,62.0,46.0,29.79,SSW,206,0.0,4.0,56,0.00,,,0.64,,2013-09-22 17:23:00,
2013-09-22 13:53:00,61.0,50.0,29.79,SSE,168,0.0,5.0,67,0.00,,,0.64,,2013-09-22 17:53:00,
2013-09-22 14:22:00,60.0,47.0,29.79,North,5,1.0,6.0,62,0.00,,,0.64,,2013-09-22 18:22:00,
2013-09-22 14:52:00,61.0,47.0,29.79,North,355,0.0,6.0,61,0.00,,,0.64,,2013-09-22 18:52:00,
2013-09-22 15:22:00,60.0,47.0,29.79,SE,137,0.0,5.0,63,0.00,,,0.64,,2013-09-22 19:22:00,
2013-09-22 15:52:00,61.0,46.0,29.79,SSE,153,0.0,9.0,57,0.00,,,0.64,,2013-09-22 19:52:00,
2013-09-22 16:22:00,61.0,50.0,29.79,SE,128,0.0,5.0,66,0.00,,,0.64,,2013-09-22 20:22:00,
2013-09-22 16:52:00,60.0,49.0,29.80,SE,138,0.0,10.0,66,0.00,,,0.64,,2013-09-22 20:52:00,
2013-09-22 17:23:00,59.0,48.0,29.81,SSE,159,0.0,3.0,68,0.00,,,0.64,,2013-09-22 21:23:00,
2013-09-22 17:54:00,59.0,46.0,29.82,SE,142,0.0,4.0,63,0.00,,,0.64,,2013-09-22 21:54:00,
2013-09-22 18:24:00,57.0,48.0,29.83,NE,54,0.0,2.0,72,0.00,,,0.64,,2013-09-22 22:24:00,
2013-09-22 18:53:00,56.0,47.0,29.84,ESE,118,0.0,3.0,71,0.00,,,0.64,,2013-09-22 22:53:00,
2013-09-22 19:22:00,55.0,47.0,29.85,East,92,0.0,2.0,75,0.00,,,0.64,,2013-09-22 23:22:00,
2013-09-22 19:52:00,54.0,48.0,29.85,South,174,0.0,2.0,79,0.00,,,0.64,,2013-09-22 23:52:00,
2013-09-22 20:23:00,54.0,46.0,29.87,East,86,0.0,2.0,75,0.00,,,0.64,,2013-09-23 00:23:00,
2013-09-22 20:53:00,53.0,46.0,29.88,SE,142,1.0,3.0,76,0.00,,,0.64,,2013-09-23 00:53:00,
2013-09-22 21:22:00,52.0,45.0,29.88,ESE,121,0.0,3.0,76,0.00,,,0.62,,2013-09-23 01:22:00,
2013-09-22 21:52:00,51.0,44.0,29.90,SE,126,0.0,1.0,77,0.00,,,0.62,,2013-09-23 01:52:00,
2013-09-22 22:22:00,50.0,44.0,29.91,SE,130,0.0,3.0,81,0.00,,,0.54,,2013-09-23 02:22:00,
2013-09-22 22:52:00,50.0,44.0,29.93,ESE,123,0.0,2.0,79,0.00,,,0.54,,2013-09-23 02:52:00,
2013-09-22 23:23:00,51.0,44.0,29.93,North,349,1.0,3.0,76,0.00,,,0.35,,2013-09-23 03:23:00,
2013-09-22 23:54:00,51.0,42.0,29.93,SE,142,1.0,7.0,71,0.00,,,0.35,,2013-09-23 03:54:00,